User: anonymous   Login
Location: The D'Auria's Ocala Star Observatory
(29.0276°N, 82.1742°W)
Time: 02:20:22
(UTC-05:00)
Language:

Abrixas rocket - Orbit

View from above orbital plane
View from above orbital plane
View from above satellite
View from above satellite

Ground track
Ground track

The orbit data is extracted from the following two-line orbital elements,

1 25723U 99022C   15060.96372064  .00015742  00000-0  42649-3 0  9997
2 25723 048.4211 268.7831 0013217 349.3653 151.1834 15.37638338876723
Epoch (UTC): 01 March 2015 23:07:45
Eccentricity: 0.0013217
inclination: 48.4211°
perigee height: 444 km
apogee height: 462 km
right ascension of ascending node: 268.7831°
argument of perigee: 349.3653°
revolutions per day: 15.37638338
mean anomaly at epoch: 151.1834°
orbit number at epoch: 87672

The dashed part of the orbit path shows where the satellite is in the earth's shadow,  

DLR